Regional Weather Roundup
Issued by NWS

Home | Current Version | Previous Version | Graphics & Text | Print | Product List | Glossary On
Versions: 1 2 3 4 5 6 7 8 9 10 11 12 13 14 15 16 17 18 19 20 21 22 23 24 25 26 27 28 29 30 31 32 33 34 35 36 37 38 39 40 41 42 43 44 45 46 47 48 49 50
905
ASUS43 KMKX 251800
RWRWI

WISCONSIN REGIONAL WEATHER ROUNDUP
NATIONAL WEATHER SERVICE MILWAUKEE/SULLIVAN WI
100 PM CDT MON SEP 25 2017

NOTE: "FAIR" INDICATES FEW OR NO CLOUDS BELOW 12,000 FEET WITH NO
SIGNIFICANT WEATHER AND/OR OBSTRUCTIONS TO VISIBILITY.

WIZ001-002-006>008-014>016-023>028-251900-
NORTHWEST WISCONSIN

CITY           SKY/WX    TMP DP  RH WIND       PRES   REMARKS
SUPERIOR ARPT  CLOUDY    58  53  82 N3        30.01F
ASHLAND        CLOUDY    64  57  78 NW3       30.01S
6HR MIN TEMP:  61; 6HR MAX TEMP:  66; 6HR PCP:  0.02;

HAYWARD        CLOUDY    64  60  87 NE7       30.00F
6HR MIN TEMP:  62; 6HR MAX TEMP:  66; 6HR PCP:  0.07;

SIREN          RAIN      59  56  91 NE6       30.00S
CUMBERLAND     CLOUDY    63  59  88 N6        29.98F
RICE LAKE      CLOUDY    69  64  82 N6        29.98F
CHETEK         CLOUDY    73  67  81 N3        29.96F
LADYSMITH      MOSUNNY   78  65  62 W3        29.98F HX  80
EAU CLAIRE     NOT AVBL
MENOMONIE      PTSUNNY   76  66  69 CALM      29.94F
NEW RICHMOND   CLOUDY    63  60  90 NW9       29.98F
OSCEOLA        CLOUDY    61  61 100 N8        30.01F
$$

WIZ003>005-009-010-017-018-251900-
NORTH CENTRAL WISCONSIN

CITY           SKY/WX    TMP DP  RH WIND       PRES   REMARKS
MANITOWISH WTR NOT AVBL
ARBOR VITAE    MOSUNNY   77  65  65 CALM      29.99S
WOODRUFF       MOSUNNY   77  65  65 CALM      29.99S
RHINELANDER    MOSUNNY   80  65  59 S5        29.99F HX  82
6HR MIN TEMP:  60; 6HR MAX TEMP:  81;

EAGLE RIVER    MOSUNNY   79  61  54 CALM      29.99F HX  80
LAND O LAKES   MOSUNNY   79  61  54 S3        30.01F HX  80
PHILLIPS       CLOUDY    77  65  66 CALM      29.97F
6HR MIN TEMP:  61; 6HR MAX TEMP:  78;

TOMAHAWK       MOSUNNY   79  63  58 CALM      29.98F HX  80
MEDFORD        CLOUDY    79  65  60 CALM      29.97F HX  81
MERRILL        MOSUNNY   81  65  57 CALM      29.98S HX  83
$$

WIZ029-030-035-036-043>047-251900-
CENTRAL WISCONSIN

CITY           SKY/WX    TMP DP  RH WIND       PRES   REMARKS
WAUSAU         MOSUNNY   83  63  50 S5        29.95F HX  84
6HR MIN TEMP:  60; 6HR MAX TEMP:  84;

MOSINEE        MOSUNNY   82  64  54 S8        29.98F HX  84
MARSHFIELD     CLOUDY    84  63  49 SW5       29.95F HX  85
6HR MIN TEMP:  61; 6HR MAX TEMP:  84;

STEVENS POINT  SUNNY     84  63  48 S9        29.97F HX  85
WAUPACA        SUNNY     88  63  43 S7        29.97F HX  88
WAUTOMA        SUNNY     87  65  47 SE7       29.95  HX  89
WISC RAPIDS    SUNNY     88  65  46 SW9       29.96F HX  90
6HR MIN TEMP:  62; 6HR MAX TEMP:  88;

CAMP DOUGLAS   NOT AVBL
$$

WIZ011>013-019>022-031-037>040-048>050-251900-
NORTHEAST WISCONSIN

CITY           SKY/WX    TMP DP  RH WIND       PRES   REMARKS
ANTIGO         SUNNY     82  63  53 S7        29.99F HX  83
SHAWANO        SUNNY     86  65  48 CALM      29.96F HX  87
OCONTO         MOSUNNY   82  66  59 SE3       29.97S HX  84
STURGEON BAY   PTSUNNY   82  69  64 E7        29.99F HX  85
6HR MIN TEMP:  68; 6HR MAX TEMP:  84;

GREEN BAY      SUNNY     88  63  43 SW6       29.96F HX  89
6HR MIN TEMP:  65; 6HR MAX TEMP:  88;

MANITOWOC      SUNNY     79  66  64 SE9       29.99F HX  81
6HR MIN TEMP:  61; 6HR MAX TEMP:  79;

APPLETON       MOSUNNY   84  63  48 SE7       29.96F HX  85
CLINTONVILLE   SUNNY     86  59  39 SW7       29.96F HX  85
OSHKOSH        SUNNY     86  66  51 S6        29.96F HX  88
6HR MIN TEMP:  67; 6HR MAX TEMP:  86;

$$

WIZ032>034-041-042-053>061-251900-
SOUTHWEST WISCONSIN

CITY           SKY/WX    TMP DP  RH WIND       PRES   REMARKS
LA CROSSE      MOSUNNY   86  66  51 SE7       29.91F HX  88
6HR MIN TEMP:  67; 6HR MAX TEMP:  86;

SPARTA         MOSUNNY   85  66  52 S7        29.95S HX  87
VIROQUA        MOSUNNY   85  66  53 S7        29.97F HX  87
BOSCOBEL       MOSUNNY   90  64  42 S8        29.93F HX  91
6HR MIN TEMP:  59; 6HR MAX TEMP:  91;

PRAIRIE DU CHI SUNNY     87  58  38 S7        29.92F HX  86
PLATTEVILLE    MOSUNNY   89  63  41 S10       29.97F HX  89
$$

WIZ056-057-062-063-064-067-068-251900-
SOUTH CENTRAL WISCONSIN

CITY           SKY/WX    TMP DP  RH WIND       PRES   REMARKS
REEDSBURG      SUNNY     87  65  47 SW8       29.96S HX  88
BARABOO/DELLS  SUNNY     86  61  43 S7        29.97S HX  86
LONE ROCK      NOT AVBL
MINERAL POINT  MOSUNNY   88  61  40 S6        29.97F HX  88
MADISON        MOSUNNY   87  64  46 S9        29.96F HX  88
6HR MIN TEMP:  63; 6HR MAX TEMP:  87;

MIDDLETON      MOSUNNY   90  61  38 S5        29.97F HX  89
WATERTOWN      SUNNY     87  64  44 SW6       29.98F HX  88
MONROE         SUNNY     88  57  35 S7        29.98F HX  86
JANESVILLE     MOSUNNY   90  57  33 S5        29.97F HX  88
$$

WIZ051-052-058>065-066-070>072-251900-
SOUTHEAST WISCONSIN

CITY           SKY/WX    TMP DP  RH WIND       PRES   REMARKS
MILWAUKEE      MOSUNNY   86  66  51 SE12      29.97F HX  88
6HR MIN TEMP:  70; 6HR MAX TEMP:  86;

WAUKESHA       MOSUNNY   88  55  33 CALM      29.99F HX  86
MILWAUKEE/TIMM SUNNY     90  52  27 W9        29.98F HX  87
RACINE         SUNNY     84  66  54 S10       30.00F HX  86
6HR MIN TEMP:  68; 6HR MAX TEMP:  84;

BURLINGTON     SUNNY     90  59  34 S6        29.98F HX  89
KENOSHA        SUNNY     89  65  44 E13       29.98F HX  91
6HR MIN TEMP:  63; 6HR MAX TEMP:  92;

FOND DU LAC    SUNNY     87  62  43 SW8       29.97F HX  87
6HR MIN TEMP:  67; 6HR MAX TEMP:  87;

SHEBOYGAN      SUNNY     84  70  62 SE7       29.98F HX  88
6HR MIN TEMP:  62; 6HR MAX TEMP:  87;

WEST BEND        N/A     88  55  33 S6        29.98F HX  86
JUNEAU         SUNNY     84  64  50 SE3       29.99F HX  85
$$

LSZ147-162-251900-
LAKE SUPERIOR

STATION/POSITION TIME  TEMP    WIND        PRES    WAVE
                       AIR SEA DIR/SP/G            HT/PER
                 (UTC) (F)     (DEG/KT/KT) (MB)    (FT/S)
W MID LAKE BUOY  1650   57 56  260/  8/ 10 1015.1R   1/ 3
DEVILS ISLAND    1700   60     270/  7/  8 1016.3R
PORT WING        1540   65     280/  8/ 10 1016.6
SAXON HARBOR     1740   62     320/  7/  9 1015.6S
$$

LMZ867-665-643>646-251900-
LAKE MICHIGAN

STATION/POSITION TIME  TEMP    WIND        PRES    WAVE
                       AIR SEA DIR/SP/G            HT/PER
                 (UTC) (F)     (DEG/KT/KT) (MB)    (FT/S)
S GREEN BAY BUOY 1700   73 70  120/  2/  2 1015.1F
N MID LAKE BUOY  1650   69 67  180/ 10/ 12 1016.0F   1/ 4
NORTHPORT PIER   1740   74     140/  5/  8 1014.9F
KEWAUNEE LAKESHO 1730   67     180/  7/  7 1014.8F
SHEBOYGAN LAKESH 1700   71     170/ 13/ 13 1015.1F
PORT WASHINGTON  1740   78     170/  3/  5 1016.3F
ATWATER BUOY     1609   68 61  210/  4/  4 1016.1F
MILWAUKEE LAKESH 1730   67     140/ 12/ 13   N/A
S MID LAKE BUOY  1650   72 71  140/ 10/ 10 1016.4F   1/ 3
KENOSHA   LAKESH 1700   74     160/ 11/ 12 1015.2
$$

TC  - TEMPERATURE IN CELSIUS
VSB - VISIBILITY IN STATUTE MILES
WCI - WIND CHILL INDEX
HX  - HEAT INDEX





USA.gov is the U.S. government's official web portal to all federal, state and local government web resources and services.